格洛纳斯-792 COSMOS 2395 [GLONASS]

导读

COSMOS 2395是独联体(CIS)于2002年12月25日发射的GLONASS(格洛纳斯)系列导航卫星,隶属于俄罗斯全球卫星导航系统,是该系统恢复组网过程中的重要成员。卫星运行于高度约19100千米、倾角64.8°的中圆地球轨道,轨道周期11小时15分钟,采用频分多址技术发播导航信号,为全球用户提供全天候定位、测速与授时服务,提升了高纬度地区的导航覆盖性能。

基本信息
目录编号:
27619
目录名称:
COSMOS 2395 (GLONASS)
国际标识:
2002-060C
轨道中心:
EARTH
卫星名称:
格洛纳斯-792
卫星全名:
格洛纳斯-792 COSMOS 2395 [GLONASS]
卫星状态:
在轨 (已飞行8574 天)
发射日期:
2002-12-25 UTC
国别 :
俄罗斯(独联体) (CIS)
星等 :
--
轨道信息
数据来源 国际轨道数据 AOE轨道数据
星历时间 2026-06-13T15:58:18+0800
3天前
查看轨道信息
2026-06-13T00:00:00+0800
4天前
查看轨道信息
半长轴 25507.913km 25507.889km
偏心率 0.0012083 0.0012084
轨道倾角 65.446° 65.446°
近地点辐角 245.427° 245.257°
升交点赤经 315.923° 315.946°
平近点角 158.638° 8.269°
近地点 19098.954km 19098.928km
远地点 19160.598km 19160.576km
周期 675.728分钟 675.727分钟
每日圈数 2.131034 2.131037
详细信息
平衡模式:
三轴稳定
覆盖范围:
全球
运营商:
列舍特涅夫卫星信息系统
运营商所在国:
俄罗斯
制造商(研发单位):
列舍特涅夫卫星信息系统
制造商所在国:
俄罗斯
使用方式:
暂无
卫星简介
格洛纳斯(GLONASS )是苏联/俄罗斯研制卫星导航系统。标准配置为24颗卫星,其中18颗卫星就能保证该系统为俄罗斯境内用户提供全部服务。该卫星已退役。
2D轨道图
3D轨道图
轨道高度分析图
轨道倾角分析图
轨道综合分析图
查看轨道综合分析图